CW8539 Weather Reports


time (UTC)temp
F
wind
direction
speed
knots
gust
knots
rain 1hr
in
rain 24hr
in
rain mn
in
humidity
%
barometer
mb
20260507040028 59 74 2.6 8.7 0.00 0.00 0.00 89 1018.9
20260507034534 59 101 4.3 9.6 0.00 0.00 0.00 88 1018.8
20260507033020 60 123 6.1 10.4 0.00 0.00 0.00 87 1018.6
20260507031522 60 67 3.5 8.7 0.00 0.00 0.00 86 1018.4
20260507030028 62 96 2.6 7.0 0.00 0.00 0.00 83 1018.2
20260507024529 63 70 1.7 5.2 0.00 0.00 0.00 80 1018.0
20260507023022 64 46 2.6 4.3 0.00 0.00 0.00 78 1017.9
20260507021530 65 51 0.9 2.6 0.00 0.00 0.00 78 1017.8
20260507020038 67 219 0.0 3.5 0.00 0.00 0.00 75 1017.7
20260507014528 67 234 1.7 4.3 0.00 0.00 0.00 75 1017.7
20260507013045 67 279 0.9 4.3 0.00 0.00 0.00 75 1017.8
20260507011522 67 220 1.7 7.0 0.00 0.00 0.00 76 1017.7
20260507010010 67 231 1.7 7.0 0.00 0.00 0.00 75 1017.7
20260507004506 67 217 3.5 5.2 0.00 0.00 0.00 76 1017.6
20260507003012 66 225 3.5 7.8 0.00 0.00 0.00 77 1017.7
20260507001511 65 234 6.1 9.6 0.00 0.00 0.00 78 1017.8
20260507000010 67 225 4.3 7.8 0.00 0.00 0.00 76 1017.7
20260506234504 66 223 5.2 9.6 0.00 0.00 0.00 76 1017.8
20260506233008 66 240 5.2 8.7 0.00 0.00 0.00 76 1017.9
20260506231512 68 240 4.3 9.6 0.00 0.00 0.00 74 1017.9
20260506230014 67 236 7.8 10.4 0.00 0.00 0.00 73 1018.2
20260506224517 67 246 4.3 10.4 0.00 0.00 0.00 74 1018.4
20260506223010 68 216 5.2 10.4 0.00 0.00 0.00 72 1018.5
20260506221512 68 221 4.3 9.6 0.00 0.00 0.00 73 1018.6
20260506220023 68 281 6.1 11.3 0.00 0.00 0.00 71 1018.9
20260506214516 68 223 5.2 11.3 0.00 0.00 0.00 72 1019.1
20260506213015 67 209 5.2 10.4 0.00 0.00 0.00 73 1019.3
20260506211514 67 248 5.2 9.6 0.00 0.00 0.00 74 1019.4
20260506210025 66 228 7.0 10.4 0.00 0.00 0.00 74 1019.4
20260506204520 67 217 6.1 9.6 0.00 0.00 0.00 71 1019.6
20260506203020 66 245 5.2 12.2 0.00 0.00 0.00 73 1019.8
20260506201522 66 238 6.1 12.2 0.00 0.00 0.00 71 1019.9
20260506200030 65 222 6.1 10.4 0.00 0.00 0.00 75 1019.9
20260506194515 64 202 7.8 11.3 0.00 0.00 0.00 74 1020.0
20260506193019 63 210 6.1 10.4 0.00 0.00 0.00 75 1020.1
20260506191522 63 229 5.2 11.3 0.00 0.00 0.00 76 1020.4
20260506190021 62 233 6.1 9.6 0.00 0.00 0.00 76 1020.4
20260506184520 62 231 7.0 10.4 0.00 0.00 0.00 76 1020.5
20260506183024 60 243 7.8 12.2 0.00 0.00 0.00 81 1020.5
20260506181505 60 230 6.1 12.2 0.00 0.00 0.00 80 1020.7
20260506180014 60 242 6.1 13.0 0.00 0.00 0.00 82 1020.7
20260506174512 60 234 7.0 12.2 0.00 0.00 0.00 81 1020.7
20260506173021 60 232 6.1 10.4 0.00 0.00 0.00 81 1020.7
20260506171522 59 264 5.2 9.6 0.00 0.00 0.00 83 1020.7
20260506170004 61 239 6.1 8.7 0.00 0.00 0.00 84 1020.7
20260506164508 60 240 3.5 6.1 0.00 0.00 0.00 83 1020.7
20260506163013 61 209 2.6 5.2 0.00 0.00 0.00 83 1020.7
20260506161519 60 199 2.6 6.1 0.00 0.00 0.00 83 1020.8
20260506160025 60 210 1.7 4.3 0.00 0.00 0.00 84 1020.9
20260506154528 60 192 0.9 3.5 0.00 0.00 0.00 83 1020.8
20260506153010 60 138 0.9 4.3 0.00 0.00 0.00 84 1020.7
20260506151516 60 147 1.7 3.5 0.00 0.00 0.00 83 1020.7
20260506150022 60 152 1.7 3.5 0.00 0.00 0.00 81 1020.8
20260506144531 59 340 0.0 1.7 0.00 0.00 0.00 87 1020.8
20260506143034 57 294 0.0 2.6 0.00 0.00 0.00 89 1020.8
20260506141511 57 309 0.0 0.0 0.00 0.00 0.00 91 1020.8
20260506140028 56 317 0.0 0.0 0.00 0.00 0.00 91 1020.5
20260506134520 55 306 0.0 0.0 0.00 0.00 0.00 91 1020.3
20260506133024 55 352 0.0 0.0 0.00 0.00 0.00 91 1020.1
20260506131513 55 355 0.0 0.0 0.00 0.00 0.00 91 1019.9
20260506130020 55 46 0.0 0.0 0.00 0.00 0.00 91 1019.8
20260506124527 55 331 0.0 0.0 0.00 0.00 0.00 91 1019.8
20260506123031 54 331 0.0 0.0 0.00 0.00 0.00 91 1019.7
20260506121527 54 325 0.0 0.9 0.00 0.00 0.00 91 1019.6
20260506120020 54 330 0.0 0.0 0.00 0.00 0.00 91 1019.6
20260506114529 54 317 0.0 0.0 0.00 0.00 0.00 91 1019.5
20260506113022 54 327 0.0 0.0 0.00 0.00 0.00 91 1019.6
20260506111526 54 340 0.0 0.0 0.00 0.00 0.00 92 1019.5
20260506110027 54 333 0.0 0.0 0.00 0.00 0.00 92 1019.4
20260506104518 54 333 0.0 0.0 0.00 0.00 0.00 92 1019.4
20260506103028 54 317 0.0 0.0 0.00 0.00 0.00 92 1019.3
20260506101524 54 348 0.0 0.0 0.00 0.00 0.00 92 1019.3
20260506100008 54 348 0.0 1.7 0.00 0.00 0.00 92 1019.4
20260506094533 54 352 0.9 2.6 0.00 0.00 0.00 92 1019.4
20260506093003 54 350 0.0 2.6 0.00 0.00 0.00 92 1019.6
20260506091504 54 360 0.0 0.0 0.00 0.00 0.00 91 1019.4
20260506090008 54 349 0.0 0.0 0.00 0.00 0.00 91 1019.4
20260506084510 54 348 0.0 0.0 0.00 0.00 0.00 90 1019.4
20260506083018 55 325 0.0 0.0 0.00 0.00 0.00 90 1019.4
20260506081504 55 325 0.0 0.0 0.00 0.00 0.00 88 1019.3
20260506073012 57 264 0.0 0.0 0.00 0.00 0.00 87 1019.0
20260506071519 57 264 0.0 0.0 0.00 0.00 0.00 87 1019.0
20260506061521 58 168 0.0 0.0 0.00 0.00 0.00 88 1018.6
20260506044525 58 28 0.0 0.0 0.00 0.00 0.00 83 1018.2
20260506043012 58 28 0.0 0.0 0.00 0.00 0.00 83 1017.9
20260506041510 59 13 0.0 0.0 0.00 0.00 0.00 82 1018.0